Weather reports worldwide

Advertisment
Brno/Turany, Czech Republic (11723): temperature & dewpoint: 29.05.2020 18:00:00 - 04.06.2020 18:00:00 (CEST)Brno/Turany, Czech Republic (11723): wind speed & gusts: 29.05.2020 18:00:00 - 04.06.2020 18:00:00 (CEST)Brno/Turany, Czech Republic (11723): wind direction: 29.05.2020 18:00:00 - 04.06.2020 18:00:00 (CEST)Brno/Turany, Czech Republic (11723): reduced air pressure: 29.05.2020 18:00:00 - 04.06.2020 18:00:00 (CEST)Brno/Turany, Czech Republic (11723): visibility: 29.05.2020 18:00:00 - 04.06.2020 18:00:00 (CEST)Brno/Turany, Czech Republic (11723): precipitation: 29.05.2020 18:00:00 - 04.06.2020 18:00:00 (CEST)
Date & Time tt [°C] td [°C] ff [km/h] ff [kn] fx [km/h] fx [kn] dd ppp [hPa] vv [km] rr [mm]
04.06.2020 18:00:00 23,0 12,3 13 7 - - SE 994,6 10 0,0
04.06.2020 17:00:00 23,1 11,2 14 8 - - SSE 995,6 35 0,0
04.06.2020 16:00:00 23,4 12,7 18 10 - - S 996,1 35 0,0
04.06.2020 15:00:00 22,7 12,1 18 10 - - SE 996,7 35 0,0
04.06.2020 14:00:00 22,4 11,8 18 10 - - SE 997,4 10 0,0
04.06.2020 13:00:00 21,7 11,7 15 8 - - SE 997,7 10 0,0
04.06.2020 12:00:00 21,0 12,7 14 8 - - SE 998,3 35 0,0
04.06.2020 11:00:00 19,7 12,0 13 7 - - ESE 998,6 10 0,0
04.06.2020 10:00:00 17,7 11,0 11 6 - - SE 999,1 10 0,0
04.06.2020 09:00:00 17,1 10,2 7 4 - - SSE 999,2 35 0,0
04.06.2020 08:00:00 15,5 9,6 11 6 - - E 999,6 35 0,0
04.06.2020 07:00:00 13,8 8,6 5 3 - - ENE 999,8 10 0,0
04.06.2020 06:00:00 12,0 7,9 11 6 - - E 1000,2 10 0,0
04.06.2020 05:00:00 12,3 8,2 11 6 - - ENE 1000,3 45 0,0
04.06.2020 04:00:00 12,9 8,0 9 5 - - ENE 1000,9 10 0,0
04.06.2020 03:00:00 12,3 7,6 11 6 - - ENE 1001,8 10 0,0
04.06.2020 02:00:00 11,8 7,5 11 6 - - E 1002,2 45 0,0
04.06.2020 01:00:00 11,7 6,8 11 6 - - E 1002,6 45 0,0
04.06.2020 00:00:00 15,1 6,1 14 8 - - ENE 1002,6 45 0,0
03.06.2020 23:00:00 15,2 7,0 14 8 - - ENE 1002,9 45 0,0
03.06.2020 22:00:00 15,6 8,6 13 7 - - ENE 1003,6 10 0,0
03.06.2020 21:00:00 18,2 8,5 9 5 - - E 1003,1 10 0,0
03.06.2020 20:00:00 18,7 9,5 11 6 - - SE 1003,0 45 0,0
03.06.2020 19:00:00 20,4 8,4 11 6 - - E 1002,6 45 0,0
03.06.2020 18:00:00 22,8 7,0 11 6 - - E 1002,5 45 0,0
03.06.2020 17:00:00 22,5 5,9 22 12 - - N 1002,5 10 0,0
03.06.2020 16:00:00 22,7 5,6 24 13 40 21 N 1003,1 10 0,0
03.06.2020 15:00:00 22,0 5,4 25 14 40 21 N 1003,7 45 0,0
03.06.2020 14:00:00 21,5 5,4 25 14 - - N 1004,4 40 0,0
03.06.2020 13:00:00 20,8 6,4 22 12 - - N 1004,9 10 0,0
03.06.2020 12:00:00 20,0 4,9 28 15 40 21 N 1005,4 10 0,0
03.06.2020 11:00:00 19,0 4,7 25 14 - - N 1005,8 35 0,0
03.06.2020 10:00:00 17,3 12,0 11 6 - - N 1006,3 10 0,0
03.06.2020 09:00:00 15,3 11,7 8 4 - - NW 1006,6 10 0,0
03.06.2020 08:00:00 13,3 11,0 7 4 - - WNW 1007,0 40 0,0
03.06.2020 07:00:00 12,3 10,5 9 5 - - NW 1007,2 10 0,0
03.06.2020 06:00:00 10,2 9,6 11 6 - - W 1007,5 10 0,0
03.06.2020 05:00:00 9,6 9,0 7 4 - - SSW 1008,1 45 0,0
03.06.2020 04:00:00 11,2 10,3 9 5 - - WNW 1008,3 10 0,0
03.06.2020 03:00:00 12,0 10,6 7 4 - - WNW 1009,1 40 0,2
03.06.2020 02:00:00 12,6 10,8 11 6 - - NW 1009,7 40 0,1
03.06.2020 01:00:00 12,8 10,9 11 6 - - WNW 1010,4 10 0,0
03.06.2020 00:00:00 12,4 11,0 8 4 - - WSW 1010,8 10 0,0
02.06.2020 23:00:00 13,4 10,4 11 6 - - WNW 1011,5 35 0,1
02.06.2020 22:00:00 13,6 10,6 16 9 - - NNW 1011,8 10 0,1
02.06.2020 21:00:00 13,8 10,8 22 12 - - WNW 1011,3 10 0,5
02.06.2020 20:00:00 15,6 9,3 25 14 - - NNW 1011,5 40 0,0
02.06.2020 19:00:00 16,1 8,8 26 14 47 25 NNW 1011,9 10 0,0
02.06.2020 18:00:00 18,3 8,6 26 14 43 23 NNW 1012,2 10 0,0
02.06.2020 17:00:00 18,9 7,4 32 18 - - NNW 1012,4 45 0,0
02.06.2020 16:00:00 19,6 6,7 35 19 54 29 NNW 1012,7 10 0,0
02.06.2020 15:00:00 19,9 7,0 29 16 47 25 NNW 1013,0 10 0,0
02.06.2020 14:00:00 20,4 6,4 18 10 - - N 1013,5 45 0,0
02.06.2020 13:00:00 19,2 4,9 24 13 40 21 N 1013,9 10 0,0
02.06.2020 12:00:00 19,2 5,3 29 16 47 25 N 1014,2 10 0,0
02.06.2020 11:00:00 18,7 7,2 29 16 - - N 1014,5 45 0,0
02.06.2020 10:00:00 17,4 5,7 22 12 43 23 NNW 1014,8 45 0,0
02.06.2020 09:00:00 16,7 6,5 25 14 - - N 1015,3 45 0,0
02.06.2020 08:00:00 13,5 5,4 11 6 - - WNW 1016,0 45 0,0
02.06.2020 07:00:00 13,0 5,2 15 8 - - NW 1016,2 10 0,0
02.06.2020 06:00:00 11,1 4,6 11 6 - - NNW 1016,5 10 0,0
02.06.2020 05:00:00 8,7 4,1 11 6 - - WNW 1017,1 35 0,0
02.06.2020 04:00:00 10,7 4,0 15 8 - - NW 1017,2 10 0,0
02.06.2020 03:00:00 11,6 3,9 18 10 - - NW 1017,6 30 0,0
02.06.2020 02:00:00 12,2 3,4 14 8 - - NW 1018,0 35 0,0
02.06.2020 01:00:00 14,0 3,5 13 7 - - NNW 1018,2 10 0,0
02.06.2020 00:00:00 15,0 3,5 13 7 - - NNW 1018,3 10 0,0
01.06.2020 23:00:00 16,2 3,3 14 8 - - N 1018,1 35 0,0
01.06.2020 22:00:00 16,6 4,0 15 8 - - N 1017,8 10 0,0
01.06.2020 21:00:00 17,9 4,5 13 7 - - N 1017,4 10 0,0
01.06.2020 20:00:00 20,2 5,4 18 10 - - N 1016,9 40 0,0
01.06.2020 19:00:00 21,0 4,6 22 12 - - N 1016,7 10 0,0
01.06.2020 18:00:00 21,7 6,0 25 14 43 23 N 1016,6 40 0,0
01.06.2020 17:00:00 21,7 5,6 29 16 - - NNW 1016,8 40 0,0
01.06.2020 16:00:00 21,7 5,6 22 12 - - N 1017,0 40 0,0
01.06.2020 15:00:00 22,2 5,2 14 8 - - N 1017,2 40 0,0
01.06.2020 14:00:00 21,8 7,2 22 12 - - N 1017,6 40 0,0
01.06.2020 13:00:00 20,2 7,2 16 9 - - N 1018,1 10 0,0
01.06.2020 12:00:00 20,2 7,9 24 13 - - NNW 1018,2 10 0,0
01.06.2020 11:00:00 19,5 7,9 22 12 - - N 1018,4 40 0,0
01.06.2020 10:00:00 18,3 9,1 18 10 - - NW 1018,6 10 0,0
01.06.2020 09:00:00 17,4 10,1 14 8 - - NNW 1018,6 35 0,0
01.06.2020 08:00:00 15,4 10,8 18 10 - - NNW 1018,7 35 0,0
01.06.2020 07:00:00 13,2 10,0 22 12 - - NW 1018,6 10 0,0
01.06.2020 06:00:00 11,4 9,5 15 8 - - NW 1018,6 10 0,0
01.06.2020 05:00:00 10,1 9,0 15 8 - - WNW 1018,8 10 0,0
01.06.2020 04:00:00 11,1 9,5 9 5 - - NW 1018,6 10 0,0
01.06.2020 03:00:00 11,4 9,5 9 5 - - NW 1018,7 10 0,0
01.06.2020 02:00:00 12,9 10,1 11 6 - - N 1018,7 25 0,0
01.06.2020 01:00:00 12,2 10,1 13 7 - - NW 1018,6 10 0,0
01.06.2020 00:00:00 12,7 9,9 15 8 - - NW 1018,2 10 0,0
31.05.2020 23:00:00 13,5 9,9 11 6 - - N 1018,2 25 0,0
31.05.2020 22:00:00 14,0 9,6 11 6 - - NNW 1018,0 25 0,0
31.05.2020 21:00:00 13,7 9,5 8 4 - - NW 1017,3 10 0,0
31.05.2020 20:00:00 13,3 9,5 11 6 - - WNW 1016,6 10 0,0
31.05.2020 19:00:00 13,6 9,5 11 6 - - NNW 1016,4 10 0,0
31.05.2020 18:00:00 13,4 9,1 8 4 - - WNW 1016,3 10 0,0
31.05.2020 17:00:00 12,6 8,3 11 6 - - WNW 1016,5 30 0,0
31.05.2020 16:00:00 12,3 8,0 16 9 - - NNW 1016,4 10 0,0
31.05.2020 15:00:00 11,8 7,7 18 10 - - NNW 1016,2 10 0,0
31.05.2020 14:00:00 12,1 7,4 25 14 - - N 1015,6 40 0,0
31.05.2020 13:00:00 11,9 7,2 25 14 40 21 NNW 1015,3 40 0,0
31.05.2020 12:00:00 10,9 8,1 9 5 - - WNW 1015,6 10 0,0
31.05.2020 11:00:00 10,2 7,4 14 8 - - W 1015,8 40 0,0
31.05.2020 10:00:00 10,2 7,4 13 7 - - WNW 1015,9 10 0,2
31.05.2020 09:00:00 9,7 7,1 15 8 - - W 1015,7 10 1,0
31.05.2020 08:00:00 10,0 6,7 25 14 - - W 1015,6 20 0,7
31.05.2020 07:00:00 11,1 5,4 18 10 - - NNW 1016,2 10 0,0
31.05.2020 06:00:00 11,0 4,7 11 6 - - NW 1016,2 10 0,0
31.05.2020 05:00:00 11,0 4,5 7 4 - - WNW 1016,3 45 0,0
31.05.2020 04:00:00 11,1 4,6 11 6 - - NW 1016,6 10 0,0
31.05.2020 03:00:00 11,4 4,4 13 7 - - WNW 1017,1 10 0,0
31.05.2020 02:00:00 11,7 4,7 14 8 - - NW 1017,8 30 0,0
31.05.2020 01:00:00 11,7 5,1 13 7 - - WNW 1018,0 10 0,0
31.05.2020 00:00:00 12,6 5,3 14 8 - - NW 1018,4 30 0,0
30.05.2020 23:00:00 13,0 5,4 18 10 - - NW 1018,5 35 0,0
30.05.2020 22:00:00 13,4 5,6 9 5 - - NW 1018,5 10 0,0
30.05.2020 21:00:00 14,7 5,0 9 5 - - NNW 1018,1 10 0,0
30.05.2020 20:00:00 14,9 7,0 7 4 - - ENE 1017,9 40 0,0
30.05.2020 19:00:00 14,5 7,1 18 10 - - ENE 1017,9 10 0,0
30.05.2020 18:00:00 16,1 6,0 5 3 - - - 1017,4 10 0,2
30.05.2020 17:00:00 15,4 4,2 11 6 - - N 1017,5 40 0,2
30.05.2020 16:00:00 17,2 4,2 13 7 - - NW 1017,3 10 0,0
30.05.2020 15:00:00 16,3 4,0 9 5 - - NNW 1017,8 10 0,0
30.05.2020 14:00:00 15,0 3,8 22 12 - - NNE 1018,6 50 0,0
30.05.2020 13:00:00 15,2 3,4 15 8 - - NNE 1018,8 10 0,0
30.05.2020 12:00:00 15,8 3,6 13 7 - - ENE 1018,7 10 0,0
30.05.2020 11:00:00 15,7 0,7 14 8 - - NNE 1019,2 45 0,0
30.05.2020 10:00:00 14,1 0,0 18 10 - - N 1019,4 45 0,0
30.05.2020 09:00:00 13,3 1,6 25 14 - - N 1019,9 45 0,0
30.05.2020 08:00:00 13,2 3,8 22 12 - - N 1019,9 45 0,0
30.05.2020 07:00:00 11,0 2,8 11 6 - - NNW 1020,6 10 0,0
30.05.2020 06:00:00 10,6 2,9 8 4 - - N 1020,9 10 0,0
30.05.2020 05:00:00 10,8 2,6 4 2 - - NNW 1021,0 45 0,0
30.05.2020 04:00:00 10,9 2,5 11 6 - - N 1021,3 45 0,0
30.05.2020 03:00:00 10,0 3,7 13 7 - - N 1021,8 10 0,0
30.05.2020 02:00:00 9,5 3,9 5 3 - - NNW 1022,2 10 0,0
30.05.2020 01:00:00 10,8 2,6 15 8 - - N 1022,2 10 0,0
30.05.2020 00:00:00 10,7 2,0 14 8 - - N 1022,5 45 0,0
29.05.2020 23:00:00 12,0 1,6 15 8 - - N 1022,5 10 0,0
29.05.2020 22:00:00 12,6 1,9 13 7 - - N 1022,6 10 0,0
29.05.2020 21:00:00 14,0 3,5 9 5 - - N 1022,3 10 0,0
29.05.2020 20:00:00 15,0 5,8 11 6 - - NW 1022,0 35 0,0
29.05.2020 19:00:00 15,7 5,6 11 6 - - NNW 1022,2 10 0,0
29.05.2020 18:00:00 14,7 6,0 18 10 - - NNE 1022,8 10 0,0

tt = temperature
td = dewpoint
ff = wind speed
fx = gusts
dd = wind direction
ppp = reduced air pressure
vv = visibility
rr = precipitation

Next stations